SWR444 LEPA-LSZB

Flight info

Callsign SWR444
Flight time 1h 30m
Altitude 38000
Route MEROS N853 LUMAS DCT MAXIR DCT LUSOL DCT BODRU DCT OKTET DCT IRMAR DCT KINES DCT VANAS N853 MOLUS N871 TELNO
Aircraft A319/M-SDE3FGHIRWY/LB1

Departure

Time 2026-05-08 20:05
Airport Palma de Mallorca Airport (LEPA)

Arrival

Time 2026-05-08 21:35
Airport Bern Airport (LSZB)
Time Latitude Longitude Altitude Speed Heading
2026-05-08 19:33 39.54650 2.73420 39 ft 0 kts 259°
2026-05-08 19:58 39.54652 2.73433 38 ft 4 kts 255°
2026-05-08 19:58 39.54661 2.73466 38 ft 4 kts 236°
2026-05-08 19:58 39.54679 2.73490 38 ft 4 kts 204°
2026-05-08 19:58 39.54700 2.73493 38 ft 2 kts 150°
2026-05-08 19:59 39.54702 2.73493 38 ft 0 kts 149°
2026-05-08 20:01 39.54691 2.73501 37 ft 6 kts 149°
2026-05-08 20:02 39.54628 2.73557 38 ft 12 kts 127°
2026-05-08 20:02 39.54586 2.73646 38 ft 12 kts 155°
2026-05-08 20:02 39.54541 2.73604 38 ft 9 kts 241°
2026-05-08 20:02 39.54507 2.73531 38 ft 10 kts 238°
2026-05-08 20:03 39.54471 2.73453 38 ft 10 kts 238°
2026-05-08 20:03 39.54432 2.73371 38 ft 11 kts 238°
2026-05-08 20:03 39.54388 2.73279 38 ft 17 kts 238°
2026-05-08 20:03 39.54304 2.73160 38 ft 15 kts 190°
2026-05-08 20:04 39.54264 2.73239 38 ft 12 kts 87°
2026-05-08 20:04 39.54270 2.73350 38 ft 13 kts 87°
2026-05-08 20:04 39.54275 2.73470 37 ft 15 kts 79°
2026-05-08 20:04 39.54416 2.73782 38 ft 77 kts 58°
2026-05-08 20:05 39.54811 2.74616 39 ft 140 kts 58°
2026-05-08 20:05 39.55363 2.75783 433 ft 155 kts 59°
2026-05-08 20:05 39.55914 2.76992 1096 ft 155 kts 60°
2026-05-08 20:05 39.56477 2.78238 1598 ft 170 kts 62°
2026-05-08 20:06 39.57114 2.79646 1951 ft 192 kts 62°
2026-05-08 20:06 39.57826 2.81214 2397 ft 209 kts 61°
2026-05-08 20:06 39.58569 2.82847 3028 ft 214 kts 60°
2026-05-08 20:06 39.59338 2.84528 3744 ft 220 kts 60°
2026-05-08 20:07 39.60129 2.86256 4129 ft 224 kts 60°
2026-05-08 20:07 39.60925 2.87996 4959 ft 226 kts 61°
2026-05-08 20:07 39.61742 2.89783 5641 ft 233 kts 60°
2026-05-08 20:07 39.62572 2.91615 6184 ft 248 kts 60°
2026-05-08 20:08 39.63459 2.93640 6598 ft 268 kts 61°
2026-05-08 20:08 39.64412 2.95844 7094 ft 288 kts 61°
2026-05-08 20:08 39.65404 2.98139 7863 ft 295 kts 61°
2026-05-08 20:08 39.66417 3.00486 8703 ft 301 kts 61°
2026-05-08 20:09 39.67442 3.02861 9551 ft 306 kts 60°
2026-05-08 20:09 39.68497 3.05305 10222 ft 318 kts 60°
2026-05-08 20:09 39.69622 3.07909 10511 ft 341 kts 60°
2026-05-08 20:09 39.70812 3.10655 11073 ft 353 kts 60°
2026-05-08 20:10 39.72024 3.13457 11781 ft 359 kts 60°
2026-05-08 20:10 39.73255 3.16315 12505 ft 364 kts 59°
2026-05-08 20:10 39.74485 3.19181 13225 ft 369 kts 59°
2026-05-08 20:10 39.75753 3.22132 13934 ft 375 kts 59°
2026-05-08 20:11 39.77045 3.25104 14588 ft 379 kts 57°
2026-05-08 20:11 39.78617 3.27873 15219 ft 381 kts 46°
2026-05-08 20:11 39.80377 3.30484 15782 ft 386 kts 46°
2026-05-08 20:11 39.82138 3.33112 15988 ft 388 kts 46°
2026-05-08 20:12 39.83906 3.35767 16031 ft 388 kts 46°
2026-05-08 20:12 39.85670 3.38429 16035 ft 388 kts 46°
2026-05-08 20:12 39.87440 3.41099 16035 ft 388 kts 46°
2026-05-08 20:12 39.89186 3.43728 16036 ft 388 kts 46°
2026-05-08 20:13 39.90955 3.46396 16040 ft 388 kts 46°
2026-05-08 20:13 39.92731 3.49070 16156 ft 391 kts 46°
2026-05-08 20:13 39.94498 3.51731 16846 ft 393 kts 46°
2026-05-08 20:13 39.96302 3.54448 17509 ft 397 kts 46°
2026-05-08 20:14 39.98126 3.57198 18160 ft 402 kts 46°
2026-05-08 20:14 39.99963 3.59979 18713 ft 407 kts 46°
2026-05-08 20:14 40.01797 3.62764 19255 ft 411 kts 46°
2026-05-08 20:14 40.03694 3.65641 19813 ft 415 kts 46°
2026-05-08 20:15 40.05564 3.68483 20361 ft 419 kts 46°
2026-05-08 20:15 40.07481 3.71395 20904 ft 423 kts 46°
2026-05-08 20:15 40.09391 3.74294 21449 ft 427 kts 46°
2026-05-08 20:15 40.11343 3.77254 21985 ft 431 kts 46°
2026-05-08 20:16 40.13311 3.80246 22527 ft 435 kts 46°
2026-05-08 20:16 40.15293 3.83269 23075 ft 439 kts 46°
2026-05-08 20:16 40.17287 3.86316 23606 ft 443 kts 46°
2026-05-08 20:16 40.19307 3.89401 24063 ft 446 kts 46°
2026-05-08 20:17 40.21309 3.92463 24500 ft 449 kts 45°
2026-05-08 20:17 40.23357 3.95592 24936 ft 452 kts 45°
2026-05-08 20:17 40.25409 3.98735 25363 ft 455 kts 45°
2026-05-08 20:17 40.27475 4.01902 25780 ft 458 kts 45°
2026-05-08 20:18 40.29532 4.05055 26189 ft 461 kts 45°
2026-05-08 20:18 40.31617 4.08257 26596 ft 464 kts 45°
2026-05-08 20:18 40.33723 4.11492 26998 ft 467 kts 45°
2026-05-08 20:18 40.35837 4.14744 27395 ft 470 kts 45°
2026-05-08 20:19 40.37966 4.18031 27790 ft 473 kts 44°
2026-05-08 20:19 40.40107 4.21340 28213 ft 475 kts 45°
2026-05-08 20:19 40.41514 4.23514 28495 ft 477 kts 44°
2026-05-08 20:19 40.43665 4.26838 28895 ft 479 kts 44°
2026-05-08 20:20 40.46619 4.31138 29391 ft 477 kts 37°
2026-05-08 20:20 40.48337 4.33056 29644 ft 474 kts 30°
2026-05-08 20:20 40.51086 4.35408 30006 ft 468 kts 21°
2026-05-08 20:20 40.53996 4.37154 30313 ft 460 kts 11°
2026-05-08 20:21 40.57045 4.38320 30613 ft 453 kts
2026-05-08 20:21 40.60145 4.39067 30898 ft 453 kts
2026-05-08 20:21 40.63236 4.39795 31184 ft 456 kts
2026-05-08 20:21 40.66404 4.40549 31470 ft 458 kts
2026-05-08 20:22 40.69521 4.41301 31762 ft 460 kts
2026-05-08 20:22 40.72673 4.42066 32172 ft 459 kts 360°
2026-05-08 20:22 40.75826 4.42834 32579 ft 459 kts 359°
2026-05-08 20:22 40.78973 4.43599 32969 ft 458 kts 359°
2026-05-08 20:23 40.82075 4.44350 33363 ft 458 kts 358°
2026-05-08 20:23 40.85204 4.45107 33800 ft 457 kts 358°
2026-05-08 20:23 40.88338 4.45864 34190 ft 456 kts 358°
2026-05-08 20:23 40.91478 4.46619 34515 ft 456 kts 358°
2026-05-08 20:24 40.94606 4.47370 34813 ft 457 kts 358°
2026-05-08 20:24 40.97698 4.48116 35095 ft 457 kts 358°
2026-05-08 20:24 41.00837 4.48877 35387 ft 458 kts 358°
2026-05-08 20:24 41.03971 4.49638 35659 ft 458 kts 359°
2026-05-08 20:25 41.07087 4.50393 35935 ft 460 kts 359°
2026-05-08 20:25 41.10240 4.51157 36168 ft 461 kts 359°
2026-05-08 20:25 41.13409 4.51928 36421 ft 461 kts 360°
2026-05-08 20:25 41.16581 4.52703 36669 ft 462 kts 360°
2026-05-08 20:26 41.19747 4.53477 36913 ft 463 kts
2026-05-08 20:26 41.22910 4.54253 37156 ft 463 kts
2026-05-08 20:26 41.26042 4.55021 37407 ft 463 kts
2026-05-08 20:26 41.29212 4.55800 37620 ft 465 kts
2026-05-08 20:27 41.32410 4.56586 37822 ft 465 kts
2026-05-08 20:27 41.35604 4.57370 38019 ft 467 kts
2026-05-08 20:27 41.41993 4.58931 38067 ft 465 kts
2026-05-08 20:28 41.48363 4.60491 38085 ft 465 kts
2026-05-08 20:28 41.54697 4.62053 38068 ft 466 kts
2026-05-08 20:29 41.61074 4.63631 38070 ft 466 kts
2026-05-08 20:29 41.67469 4.65213 38068 ft 466 kts
2026-05-08 20:30 41.73788 4.67397 38088 ft 478 kts 17°
2026-05-08 20:30 41.79649 4.71744 38081 ft 486 kts 25°
2026-05-08 20:31 41.85451 4.76405 38077 ft 486 kts 25°
2026-05-08 20:31 41.91226 4.81040 38097 ft 486 kts 26°
2026-05-08 20:32 41.97014 4.85699 38086 ft 485 kts 26°
2026-05-08 20:32 42.02760 4.90351 38090 ft 485 kts 26°
2026-05-08 20:33 42.08543 4.95045 38094 ft 485 kts 26°
2026-05-08 20:33 42.14318 4.99739 38097 ft 483 kts 26°
2026-05-08 20:34 42.20034 5.04385 38102 ft 482 kts 26°
2026-05-08 20:35 42.28636 5.11403 38091 ft 481 kts 26°
2026-05-08 20:35 42.34369 5.16102 38108 ft 480 kts 27°
2026-05-08 20:36 42.40084 5.20807 38099 ft 480 kts 27°
2026-05-08 20:36 42.45750 5.25465 38097 ft 479 kts 27°
2026-05-08 20:37 42.51462 5.30156 38101 ft 479 kts 27°
2026-05-08 20:37 42.57171 5.34863 38090 ft 479 kts 27°
2026-05-08 20:38 42.62853 5.39570 38085 ft 478 kts 27°
2026-05-08 20:38 42.68495 5.44254 38087 ft 478 kts 27°
2026-05-08 20:39 42.74177 5.48979 38091 ft 477 kts 27°
2026-05-08 20:39 42.79812 5.53677 38089 ft 477 kts 28°
2026-05-08 20:40 42.85478 5.58407 38086 ft 477 kts 27°
2026-05-08 20:40 42.91154 5.63146 38107 ft 478 kts 28°
2026-05-08 20:41 42.96791 5.67867 38096 ft 478 kts 28°
2026-05-08 20:41 43.02442 5.72618 38087 ft 478 kts 28°
2026-05-08 20:42 43.08128 5.77401 38092 ft 478 kts 28°
2026-05-08 20:42 43.13794 5.82184 38097 ft 478 kts 28°
2026-05-08 20:43 43.19422 5.86948 38093 ft 478 kts 28°
2026-05-08 20:43 43.25090 5.91748 38089 ft 478 kts 28°
2026-05-08 20:44 43.30742 5.96539 38099 ft 477 kts 29°
2026-05-08 20:44 43.36395 6.01251 38090 ft 475 kts 24°
2026-05-08 20:45 43.42556 6.04185 38080 ft 465 kts
2026-05-08 20:45 43.48956 6.04990 38084 ft 460 kts 359°
2026-05-08 20:46 43.55362 6.05636 38079 ft 461 kts 359°
2026-05-08 20:46 43.61738 6.06295 38076 ft 461 kts 359°
2026-05-08 20:47 43.68120 6.06945 38092 ft 462 kts 359°
2026-05-08 20:47 43.74567 6.07662 38086 ft 464 kts
2026-05-08 20:48 43.80742 6.10267 38088 ft 473 kts 23°
2026-05-08 20:48 43.86653 6.14311 38098 ft 473 kts 23°
2026-05-08 20:49 43.92547 6.18334 38104 ft 472 kts 23°
2026-05-08 20:49 43.98406 6.22341 38103 ft 471 kts 23°
2026-05-08 20:50 44.04305 6.26373 38103 ft 471 kts 23°
2026-05-08 20:50 44.10173 6.30400 38115 ft 470 kts 23°
2026-05-08 20:51 44.15998 6.34413 38108 ft 469 kts 23°
2026-05-08 20:51 44.21848 6.38449 38106 ft 469 kts 23°
2026-05-08 20:52 44.27670 6.42479 38124 ft 468 kts 23°
2026-05-08 20:52 44.33508 6.46519 38127 ft 467 kts 23°
2026-05-08 20:53 44.39327 6.50565 38115 ft 466 kts 23°
2026-05-08 20:53 44.45080 6.54568 38149 ft 465 kts 23°
2026-05-08 20:54 44.50878 6.58609 38140 ft 464 kts 23°
2026-05-08 20:54 44.56657 6.62637 38134 ft 463 kts 23°
2026-05-08 20:55 44.62433 6.66676 38135 ft 462 kts 23°
2026-05-08 20:55 44.68151 6.70689 38135 ft 462 kts 23°
2026-05-08 20:56 44.73916 6.74746 38126 ft 462 kts 23°
2026-05-08 20:56 44.79853 6.78017 38143 ft 455 kts
2026-05-08 20:57 44.86041 6.78655 38125 ft 443 kts 352°
2026-05-08 20:57 44.92232 6.78219 38124 ft 444 kts 353°
2026-05-08 20:58 44.96059 6.77973 38135 ft 444 kts 353°
2026-05-08 20:58 45.02242 6.77583 38143 ft 444 kts 353°
2026-05-08 20:59 45.08384 6.77185 38137 ft 444 kts 353°
2026-05-08 20:59 45.14583 6.77384 38006 ft 447 kts 358°
2026-05-08 20:59 45.17699 6.77620 37615 ft 447 kts 359°
2026-05-08 21:00 45.20803 6.77891 37222 ft 445 kts 359°
2026-05-08 21:00 45.23896 6.78162 36824 ft 445 kts 359°
2026-05-08 21:00 45.26943 6.78420 36440 ft 445 kts 359°
2026-05-08 21:00 45.30031 6.78668 36058 ft 445 kts 359°
2026-05-08 21:01 45.33109 6.78908 35694 ft 442 kts 359°
2026-05-08 21:01 45.36178 6.79144 35306 ft 439 kts 359°
2026-05-08 21:01 45.39222 6.79374 34947 ft 436 kts 359°
2026-05-08 21:01 45.42237 6.79599 34579 ft 432 kts 359°
2026-05-08 21:02 45.45231 6.79824 34221 ft 428 kts 359°
2026-05-08 21:02 45.48194 6.80048 33824 ft 425 kts 359°
2026-05-08 21:02 45.51145 6.80271 33415 ft 422 kts 359°
2026-05-08 21:02 45.54035 6.80493 33021 ft 419 kts 359°
2026-05-08 21:03 45.56934 6.80718 32627 ft 416 kts 359°
2026-05-08 21:03 45.59855 6.80943 32251 ft 412 kts 359°
2026-05-08 21:03 45.62675 6.81160 31871 ft 408 kts 359°
2026-05-08 21:03 45.65509 6.81378 31487 ft 405 kts 359°
2026-05-08 21:04 45.68325 6.81597 31112 ft 402 kts 359°
2026-05-08 21:04 45.71109 6.81813 30745 ft 399 kts 359°
2026-05-08 21:04 45.73872 6.82025 30376 ft 396 kts 359°
2026-05-08 21:04 45.76619 6.82234 29983 ft 393 kts 359°
2026-05-08 21:05 45.79329 6.82441 29576 ft 388 kts 359°
2026-05-08 21:05 45.81986 6.82646 29162 ft 385 kts 359°
2026-05-08 21:05 45.84654 6.82858 28752 ft 383 kts 359°
2026-05-08 21:05 45.87311 6.83067 28344 ft 381 kts 359°
2026-05-08 21:06 45.89965 6.83272 27940 ft 379 kts 359°
2026-05-08 21:06 45.92598 6.83473 27546 ft 378 kts 359°
2026-05-08 21:06 45.95180 6.83671 27162 ft 376 kts 360°
2026-05-08 21:06 45.97785 6.83873 26781 ft 374 kts 359°
2026-05-08 21:07 46.00381 6.84072 26400 ft 372 kts 360°
2026-05-08 21:07 46.02961 6.84270 26027 ft 370 kts 360°
2026-05-08 21:07 46.05469 6.84469 25661 ft 369 kts
2026-05-08 21:07 46.08032 6.84674 25297 ft 367 kts
2026-05-08 21:08 46.10592 6.84879 24946 ft 366 kts
2026-05-08 21:08 46.13149 6.85084 24567 ft 365 kts
2026-05-08 21:08 46.15677 6.85315 24215 ft 365 kts
2026-05-08 21:08 46.18136 6.86306 23875 ft 368 kts 22°
2026-05-08 21:09 46.20436 6.87841 23503 ft 369 kts 23°
2026-05-08 21:09 46.22755 6.89421 23094 ft 368 kts 23°
2026-05-08 21:09 46.25058 6.91003 22688 ft 366 kts 23°
2026-05-08 21:09 46.27359 6.92587 22285 ft 364 kts 23°
2026-05-08 21:10 46.28873 6.93629 22021 ft 363 kts 23°
2026-05-08 21:10 46.31149 6.95196 21623 ft 361 kts 23°
2026-05-08 21:10 46.33414 6.96756 21238 ft 359 kts 23°
2026-05-08 21:10 46.35662 6.98303 20860 ft 357 kts 23°
2026-05-08 21:11 46.37904 6.99842 20483 ft 355 kts 23°
2026-05-08 21:11 46.40146 7.01382 20106 ft 353 kts 23°
2026-05-08 21:11 46.42330 7.02881 19736 ft 351 kts 23°
2026-05-08 21:11 46.44539 7.04398 19373 ft 350 kts 23°
2026-05-08 21:12 46.46716 7.05896 19010 ft 348 kts 23°
2026-05-08 21:12 46.48927 7.07420 18653 ft 347 kts 23°
2026-05-08 21:12 46.51097 7.08916 18286 ft 345 kts 23°
2026-05-08 21:12 46.53234 7.10393 17883 ft 343 kts 23°
2026-05-08 21:13 46.55351 7.11862 17494 ft 342 kts 23°
2026-05-08 21:13 46.57504 7.13359 17098 ft 341 kts 24°
2026-05-08 21:13 46.59642 7.14846 16691 ft 339 kts 24°
2026-05-08 21:13 46.61759 7.16320 16311 ft 337 kts 24°
2026-05-08 21:14 46.63876 7.17790 15939 ft 336 kts 24°
2026-05-08 21:14 46.65983 7.19255 15565 ft 335 kts 24°
2026-05-08 21:14 46.68057 7.20696 15182 ft 333 kts 24°
2026-05-08 21:14 46.70140 7.22144 14713 ft 330 kts 24°
2026-05-08 21:15 46.72192 7.23573 14267 ft 323 kts 24°
2026-05-08 21:15 46.74200 7.24973 13769 ft 318 kts 24°
2026-05-08 21:15 46.76193 7.26367 13182 ft 314 kts 24°
2026-05-08 21:15 46.78226 7.27430 12611 ft 308 kts 11°
2026-05-08 21:16 46.80290 7.28116 12040 ft 306 kts 11°
2026-05-08 21:16 46.82352 7.28806 11710 ft 294 kts 11°
2026-05-08 21:16 46.84260 7.29452 11581 ft 277 kts 11°
2026-05-08 21:16 46.86112 7.30081 11251 ft 269 kts 11°
2026-05-08 21:17 46.87918 7.30692 10812 ft 266 kts 11°
2026-05-08 21:17 46.89701 7.31293 10363 ft 263 kts 11°
2026-05-08 21:17 46.91472 7.31892 9921 ft 261 kts 12°
2026-05-08 21:17 46.93237 7.32390 9404 ft 257 kts 360°
2026-05-08 21:18 46.94946 7.31847 8882 ft 249 kts 329°
2026-05-08 21:18 46.96359 7.30488 8348 ft 247 kts 321°
2026-05-08 21:18 46.97761 7.28929 7794 ft 247 kts 321°
2026-05-08 21:18 46.99111 7.27387 7284 ft 245 kts 320°
2026-05-08 21:19 47.00395 7.25906 7124 ft 229 kts 320°
2026-05-08 21:19 47.01622 7.24483 6853 ft 221 kts 320°
2026-05-08 21:19 47.02851 7.23230 6574 ft 212 kts 336°
2026-05-08 21:19 47.04294 7.23042 6114 ft 210 kts 14°
2026-05-08 21:20 47.05521 7.24129 5649 ft 207 kts 49°
2026-05-08 21:20 47.06280 7.25892 5198 ft 205 kts 69°
2026-05-08 21:20 47.06593 7.27897 4763 ft 202 kts 88°
2026-05-08 21:20 47.06444 7.29903 4326 ft 199 kts 106°
2026-05-08 21:21 47.05859 7.31718 4010 ft 196 kts 125°
2026-05-08 21:21 47.04912 7.33186 4008 ft 198 kts 140°
2026-05-08 21:21 47.03857 7.34478 4004 ft 198 kts 140°
2026-05-08 21:21 47.02805 7.35770 4009 ft 199 kts 140°
2026-05-08 21:22 47.01743 7.37074 4007 ft 199 kts 140°
2026-05-08 21:22 47.00687 7.38369 4010 ft 199 kts 140°
2026-05-08 21:22 46.99625 7.39671 4010 ft 199 kts 140°
2026-05-08 21:22 46.98607 7.40917 3928 ft 199 kts 140°
2026-05-08 21:23 46.97573 7.42184 3656 ft 188 kts 140°
2026-05-08 21:23 46.96595 7.43381 3339 ft 182 kts 140°
2026-05-08 21:23 46.95642 7.44546 3010 ft 174 kts 140°
2026-05-08 21:23 46.94737 7.45651 2716 ft 165 kts 139°
2026-05-08 21:24 46.93899 7.46676 2413 ft 153 kts 139°
2026-05-08 21:24 46.93121 7.47650 2165 ft 138 kts 140°
2026-05-08 21:24 46.92404 7.48529 1860 ft 131 kts 143°
2026-05-08 21:24 46.91710 7.49343 1708 ft 128 kts 142°
2026-05-08 21:25 46.91030 7.50197 2322 ft 131 kts 141°
2026-05-08 21:25 46.90324 7.51059 2950 ft 136 kts 140°
2026-05-08 21:25 46.89555 7.51980 3311 ft 153 kts 140°
2026-05-08 21:25 46.88666 7.53031 3672 ft 175 kts 141°
2026-05-08 21:26 46.87731 7.54309 3986 ft 192 kts 126°
2026-05-08 21:26 46.87371 7.56154 3985 ft 193 kts 86°
2026-05-08 21:26 46.87906 7.57914 3993 ft 194 kts 47°
2026-05-08 21:26 46.89094 7.58784 4000 ft 195 kts
2026-05-08 21:27 46.90388 7.58365 4018 ft 194 kts 329°
2026-05-08 21:27 46.91444 7.57248 4253 ft 194 kts 321°
2026-05-08 21:27 46.92449 7.56079 4494 ft 195 kts 321°
2026-05-08 21:27 46.93518 7.54831 4752 ft 198 kts 320°
2026-05-08 21:28 46.94600 7.53558 4932 ft 200 kts 321°
2026-05-08 21:28 46.95681 7.52282 4993 ft 201 kts 320°
2026-05-08 21:28 46.96768 7.51002 4996 ft 200 kts 320°
2026-05-08 21:28 46.97854 7.49725 5009 ft 200 kts 320°
2026-05-08 21:29 46.98937 7.48450 5011 ft 200 kts 320°
2026-05-08 21:29 47.00023 7.47169 5009 ft 200 kts 320°
2026-05-08 21:29 47.01090 7.45912 5009 ft 200 kts 320°
2026-05-08 21:29 47.01851 7.45012 5009 ft 199 kts 320°
2026-05-08 21:30 47.02885 7.43786 4757 ft 198 kts 320°
2026-05-08 21:30 47.03907 7.42455 4450 ft 197 kts 308°
2026-05-08 21:31 47.04329 7.40603 4153 ft 193 kts 266°
2026-05-08 21:31 47.03864 7.38888 4012 ft 180 kts 225°
2026-05-08 21:31 47.02852 7.37991 4002 ft 161 kts 196°
2026-05-08 21:31 47.01787 7.37843 4000 ft 151 kts 172°
2026-05-08 21:32 47.00809 7.38308 4008 ft 143 kts 150°
2026-05-08 21:32 47.00037 7.39170 4006 ft 138 kts 140°
2026-05-08 21:32 46.99306 7.40063 4012 ft 135 kts 140°
2026-05-08 21:32 46.98581 7.40949 3921 ft 135 kts 140°
2026-05-08 21:33 46.97862 7.41830 3739 ft 135 kts 140°
2026-05-08 21:33 46.97130 7.42727 3524 ft 137 kts 140°
2026-05-08 21:33 46.96393 7.43639 3302 ft 138 kts 139°
2026-05-08 21:33 46.95679 7.44501 3043 ft 130 kts 141°
2026-05-08 21:34 46.94992 7.45341 2744 ft 133 kts 141°
2026-05-08 21:34 46.94283 7.46189 2479 ft 130 kts 137°
2026-05-08 21:34 46.93583 7.47060 2299 ft 134 kts 141°
2026-05-08 21:34 46.92888 7.47928 2016 ft 132 kts 142°
2026-05-08 21:35 46.92175 7.48787 1819 ft 132 kts 142°
2026-05-08 21:35 46.91520 7.49586 1686 ft 110 kts 139°
2026-05-08 21:35 46.91093 7.50107 1708 ft 47 kts 141°
2026-05-08 21:35 46.90871 7.50371 1703 ft 32 kts 139°
2026-05-08 21:36 46.90775 7.50496 1701 ft 16 kts 144°
2026-05-08 21:36 46.90726 7.50577 1702 ft 8 kts 145°
2026-05-08 21:36 46.90730 7.50550 1708 ft 7 kts 320°
2026-05-08 21:36 46.90772 7.50498 1701 ft 9 kts 319°
2026-05-08 21:37 46.90842 7.50409 1703 ft 19 kts 320°
2026-05-08 21:37 46.90946 7.50283 1704 ft 19 kts 320°
2026-05-08 21:37 46.91043 7.50164 1707 ft 18 kts 320°
2026-05-08 21:37 46.91145 7.50040 1707 ft 19 kts 320°
2026-05-08 21:38 46.91235 7.49933 1683 ft 8 kts 333°
2026-05-08 21:38 46.91243 7.49942 1694 ft 0 kts 58°
2026-05-08 21:38 46.91260 7.49972 1687 ft 6 kts 52°
2026-05-08 21:38 46.91288 7.50029 1697 ft 8 kts 63°
2026-05-08 21:39 46.91306 7.50078 1711 ft 0 kts 62°
2026-05-08 21:39 46.91309 7.50101 1707 ft 0 kts 100°
2026-05-08 21:39 46.91309 7.50103 1707 ft 0 kts 97°